| time (UTC) | temp C | wind direction | speed KPH | gust KPH | rain 1hr cm | rain 24hr cm | rain mn cm | humidity % | barometer mb |
| 20260508134914 | 22 | 223 | 4.8 | 20.9 | 0.00 | 0.00 | 0.00 | 51 | 1014.5 |
| 20260508131913 | 22 | 106 | 4.8 | 14.5 | 0.00 | 0.00 | 0.00 | 48 | 1014.9 |
| 20260508130406 | 22 | 220 | 4.8 | 17.7 | 0.00 | 0.00 | 0.00 | 50 | 1015.1 |
| 20260508123420 | 22 | 275 | 6.4 | 19.3 | 0.00 | 0.00 | 0.00 | 45 | 1015.4 |
| 20260508121910 | 22 | 149 | 9.7 | 20.9 | 0.00 | 0.00 | 0.00 | 43 | 1016.0 |
| 20260508120412 | 22 | 237 | 8.0 | 22.5 | 0.00 | 0.00 | 0.00 | 42 | 1016.1 |
| 20260508113411 | 22 | 255 | 3.2 | 16.1 | 0.00 | 0.00 | 0.00 | 44 | 1016.0 |
| 20260508111910 | 21 | 128 | 4.8 | 17.7 | 0.00 | 0.00 | 0.00 | 45 | 1016.2 |
| 20260508110420 | 21 | 186 | 3.2 | 8.0 | 0.00 | 0.00 | 0.00 | 45 | 1016.6 |
| 20260508104909 | 21 | 224 | 3.2 | 11.3 | 0.00 | 0.00 | 0.00 | 46 | 1016.8 |
| 20260508101912 | 21 | 200 | 3.2 | 8.0 | 0.00 | 0.00 | 0.00 | 47 | 1017.1 |
| 20260508100408 | 21 | 217 | 3.2 | 9.7 | 0.00 | 0.00 | 0.00 | 48 | 1017.3 |
| 20260508094909 | 21 | 197 | 0.0 | 6.4 | 0.00 | 0.00 | 0.00 | 48 | 1018.0 |
| 20260508091915 | 21 | 152 | 3.2 | 14.5 | 0.00 | 0.00 | 0.00 | 51 | 1018.1 |
| 20260508090409 | 21 | 231 | 3.2 | 11.3 | 0.00 | 0.00 | 0.00 | 52 | 1018.2 |
| 20260508084908 | 20 | 197 | 3.2 | 11.3 | 0.00 | 0.00 | 0.00 | 52 | 1018.2 |
| 20260508083414 | 20 | 142 | 1.6 | 14.5 | 0.00 | 0.00 | 0.00 | 50 | 1018.4 |
| 20260508081915 | 20 | 258 | 1.6 | 11.3 | 0.00 | 0.00 | 0.00 | 49 | 1018.2 |
| 20260508080405 | 21 | 233 | 3.2 | 14.5 | 0.00 | 0.00 | 0.00 | 46 | 1018.3 |
| 20260508074903 | 20 | 238 | 1.6 | 9.7 | 0.00 | 0.00 | 0.00 | 45 | 1018.5 |
| 20260508073403 | 20 | 182 | 1.6 | 11.3 | 0.00 | 0.00 | 0.00 | 46 | 1018.5 |
| 20260508071907 | 19 | 237 | 3.2 | 11.3 | 0.00 | 0.00 | 0.00 | 46 | 1018.8 |
| 20260508070408 | 19 | 216 | 1.6 | 9.7 | 0.00 | 0.00 | 0.00 | 46 | 1019.1 |
| 20260508064902 | 20 | 255 | 3.2 | 8.0 | 0.00 | 0.00 | 0.00 | 43 | 1019.1 |
| 20260508063404 | 19 | 217 | 1.6 | 6.4 | 0.00 | 0.00 | 0.00 | 39 | 1018.8 |
| 20260508061905 | 20 | 219 | 3.2 | 6.4 | 0.00 | 0.00 | 0.00 | 38 | 1018.7 |
| 20260508060408 | 20 | 204 | 1.6 | 8.0 | 0.00 | 0.00 | 0.00 | 37 | 1018.3 |
| 20260508054905 | 20 | 252 | 0.0 | 3.2 | 0.00 | 0.00 | 0.00 | 40 | 1017.5 |
| 20260508053403 | 19 | 262 | 0.0 | 0.0 | 0.00 | 0.00 | 0.00 | 43 | 1017.2 |
| 20260508051903 | 19 | 271 | 0.0 | 0.0 | 0.00 | 0.00 | 0.00 | 45 | 1016.8 |
| 20260508050402 | 18 | 190 | 0.0 | 0.0 | 0.00 | 0.00 | 0.00 | 49 | 1016.6 |
| 20260508044855 | 18 | 190 | 0.0 | 3.2 | 0.00 | 0.00 | 0.00 | 47 | 1016.7 |
| 20260508043356 | 18 | 182 | 0.0 | 3.2 | 0.00 | 0.00 | 0.00 | 51 | 1016.8 |
| 20260508041857 | 18 | 120 | 0.0 | 3.2 | 0.00 | 0.00 | 0.00 | 53 | 1016.3 |
| 20260508040408 | 18 | 333 | 0.0 | 3.2 | 0.00 | 0.00 | 0.00 | 51 | 1016.1 |
| 20260508034902 | 18 | 0 | 0.0 | 0.0 | 0.00 | 0.00 | 0.00 | 52 | 1015.7 |
| 20260508033400 | 18 | 0 | 0.0 | 0.0 | 0.00 | 0.00 | 0.00 | 53 | 1015.7 |
| 20260508031901 | 18 | 0 | 0.0 | 3.2 | 0.00 | 0.00 | 0.00 | 52 | 1015.7 |
| 20260508030359 | 18 | 54 | 0.0 | 4.8 | 0.00 | 0.00 | 0.00 | 55 | 1015.7 |
| 20260508024855 | 18 | 351 | 1.6 | 3.2 | 0.00 | 0.00 | 0.00 | 54 | 1015.7 |
| 20260508023359 | 18 | 357 | 1.6 | 4.8 | 0.00 | 0.00 | 0.00 | 57 | 1015.9 |
| 20260508021901 | 18 | 316 | 0.0 | 3.2 | 0.00 | 0.00 | 0.00 | 57 | 1015.9 |
| 20260508020359 | 18 | 316 | 1.6 | 4.8 | 0.00 | 0.00 | 0.00 | 46 | 1016.0 |
| 20260508014859 | 19 | 264 | 3.2 | 6.4 | 0.00 | 0.00 | 0.00 | 40 | 1015.8 |
| 20260508013359 | 19 | 233 | 1.6 | 4.8 | 0.00 | 0.00 | 0.00 | 42 | 1016.1 |
| 20260508011905 | 18 | 226 | 0.0 | 0.0 | 0.00 | 0.00 | 0.00 | 53 | 1016.3 |
| 20260508010357 | 18 | 14 | 0.0 | 0.0 | 0.00 | 0.00 | 0.00 | 56 | 1016.5 |
| 20260508004905 | 18 | 0 | 0.0 | 0.0 | 0.00 | 0.00 | 0.00 | 54 | 1016.7 |
| 20260508003358 | 18 | 0 | 0.0 | 0.0 | 0.00 | 0.00 | 0.00 | 53 | 1016.5 |
| 20260508001925 | 18 | 350 | 0.0 | 0.0 | 0.00 | 0.00 | 0.00 | 53 | 1016.6 |
| 20260508000357 | 18 | 0 | 0.0 | 0.0 | 0.00 | 0.00 | 0.00 | 53 | 1016.6 |
| 20260507234916 | 18 | 298 | 0.0 | 3.2 | 0.00 | 0.00 | 0.00 | 52 | 1016.8 |
| 20260507233352 | 18 | 0 | 0.0 | 3.2 | 0.00 | 0.00 | 0.00 | 51 | 1017.1 |
| 20260507231904 | 18 | 343 | 0.0 | 0.0 | 0.00 | 0.00 | 0.00 | 51 | 1017.3 |
| 20260507230355 | 18 | 13 | 0.0 | 0.0 | 0.00 | 0.00 | 0.00 | 51 | 1017.1 |
| 20260507224859 | 18 | 0 | 0.0 | 3.2 | 0.00 | 0.00 | 0.00 | 50 | 1017.4 |
| 20260507223354 | 18 | 348 | 0.0 | 3.2 | 0.00 | 0.00 | 0.00 | 48 | 1017.4 |
| 20260507221850 | 18 | 338 | 3.2 | 4.8 | 0.00 | 0.00 | 0.00 | 49 | 1017.5 |
| 20260507220418 | 19 | 171 | 0.0 | 3.2 | 0.00 | 0.00 | 0.00 | 52 | 1017.6 |
| 20260507214851 | 19 | 243 | 0.0 | 3.2 | 0.00 | 0.00 | 0.00 | 50 | 1018.0 |
| 20260507213346 | 19 | 255 | 0.0 | 3.2 | 0.00 | 0.00 | 0.00 | 48 | 1018.0 |
| 20260507211847 | 19 | 258 | 0.0 | 3.2 | 0.00 | 0.00 | 0.00 | 47 | 1018.0 |
| 20260507210355 | 19 | 237 | 0.0 | 9.7 | 0.00 | 0.00 | 0.00 | 45 | 1018.1 |
| 20260507204852 | 20 | 209 | 3.2 | 8.0 | 0.00 | 0.00 | 0.00 | 40 | 1017.9 |
| 20260507203352 | 20 | 235 | 1.6 | 6.4 | 0.00 | 0.00 | 0.00 | 40 | 1018.2 |
| 20260507200358 | 20 | 0 | 0.0 | 3.2 | 0.00 | 0.00 | 0.00 | 48 | 1018.0 |
| 20260507194855 | 20 | 330 | 0.0 | 6.4 | 0.00 | 0.00 | 0.00 | 48 | 1018.1 |
| 20260507193350 | 20 | 293 | 1.6 | 4.8 | 0.00 | 0.00 | 0.00 | 48 | 1017.9 |
| 20260507191849 | 20 | 326 | 1.6 | 3.2 | 0.00 | 0.00 | 0.00 | 45 | 1017.6 |
| 20260507190354 | 20 | 27 | 0.0 | 8.0 | 0.00 | 0.00 | 0.00 | 40 | 1017.5 |
| 20260507184849 | 20 | 202 | 3.2 | 6.4 | 0.00 | 0.00 | 0.00 | 37 | 1017.8 |
| 20260507183349 | 20 | 235 | 3.2 | 6.4 | 0.00 | 0.00 | 0.00 | 36 | 1017.5 |
| 20260507181846 | 21 | 221 | 1.6 | 4.8 | 0.00 | 0.00 | 0.00 | 40 | 1017.6 |
| 20260507180347 | 21 | 254 | 0.0 | 3.2 | 0.00 | 0.00 | 0.00 | 41 | 1017.5 |
| 20260507174846 | 21 | 171 | 1.6 | 6.4 | 0.00 | 0.00 | 0.00 | 40 | 1017.4 |
| 20260507171846 | 21 | 159 | 1.6 | 8.0 | 0.00 | 0.00 | 0.00 | 37 | 1017.5 |
| 20260507170346 | 22 | 157 | 1.6 | 8.0 | 0.00 | 0.00 | 0.00 | 33 | 1017.0 |
| 20260507164849 | 22 | 209 | 3.2 | 6.4 | 0.00 | 0.00 | 0.00 | 34 | 1016.8 |
| 20260507163346 | 22 | 209 | 3.2 | 6.4 | 0.00 | 0.00 | 0.00 | 35 | 1016.8 |
| 20260507161845 | 22 | 228 | 1.6 | 6.4 | 0.00 | 0.00 | 0.00 | 36 | 1017.1 |
| 20260507160345 | 22 | 316 | 0.0 | 9.7 | 0.00 | 0.00 | 0.00 | 34 | 1017.0 |
| 20260507154849 | 22 | 195 | 3.2 | 11.3 | 0.00 | 0.00 | 0.00 | 33 | 1017.1 |
| 20260507153344 | 22 | 166 | 4.8 | 16.1 | 0.00 | 0.00 | 0.00 | 33 | 1017.2 |
| 20260507151847 | 23 | 240 | 3.2 | 11.3 | 0.00 | 0.00 | 0.00 | 33 | 1017.5 |
| 20260507150347 | 23 | 149 | 3.2 | 11.3 | 0.00 | 0.00 | 0.00 | 34 | 1017.4 |
| 20260507144849 | 22 | 269 | 8.0 | 14.5 | 0.00 | 0.00 | 0.00 | 35 | 1017.3 |
| 20260507143344 | 23 | 216 | 4.8 | 16.1 | 0.00 | 0.00 | 0.00 | 35 | 1017.4 |
| 20260507141844 | 23 | 207 | 6.4 | 16.1 | 0.00 | 0.00 | 0.00 | 33 | 1017.3 |